Regional Weather Roundup
Issued by NWS Wilmington, NC

Home | Current Version | Previous Version | Text Only | Print | Product List | Glossary On
Versions: 1 2 3 4 5 6 7 8 9 10 11 12 13 14 15 16 17 18 19 20 21 22 23 24 25 26 27 28 29 30 31 32 33 34 35 36 37 38 39 40 41 42 43 44 45 46 47 48 49 50
000
ASUS42 KILM 292110
RWRILM
RWRILM
REGIONAL HOURLY WEATHER ROUNDUP
NATIONAL WEATHER SERVICE WILMINGTON NC
500 PM EDT TUE JUL 29 2014

NOTE: "FAIR" INDICATES FEW OR NO CLOUDS BELOW 12,000 FEET WITH NO
SIGNIFICANT WEATHER AND/OR OBSTRUCTIONS TO VISIBILITY.

...............WFO WILMINGTON COUNTY WARNING AREA...............

......COASTAL NC AND SC COUNTIES......

CITY           SKY/WX    TMP DP  RH WIND       PRES   REMARKS
WILMINGTON     PTSUNNY   84  68  58 E9        29.89S
SOUTHPORT      MOSUNNY   84  68  58 E6        29.90S
N MYRTLE BEACH MOSUNNY   85  66  53 S5        29.89S
MYRTLE BEACH   MOSUNNY   86  64  48 S10       29.90R

......INLAND NC AND SC COUNTIES.......

CITY           SKY/WX    TMP DP  RH WIND       PRES   REMARKS
LUMBERTON      MOSUNNY   85  60  42 NW7       29.90S
ELIZABETHTOWN  MOSUNNY   84  59  42 CALM      29.91R
WHITEVILLE     MOSUNNY   86  62  43 CALM      29.90S
FLORENCE       MOSUNNY   85  59  41 NE3       29.91S
DARLINGTON     MOSUNNY   86  63  45 NE8       29.93S

....................REST OF NORTH CAROLINA......................

.........EASTERN NC.........

CITY           SKY/WX    TMP DP  RH WIND       PRES   REMARKS
CAPE HATTERAS  MOSUNNY   81  67  62 NE8       29.92R
JACKSONVILLE   SUNNY     82  61  47 N7        29.91S
MOREHEAD CITY  MOSUNNY   84  66  54 VRB7      29.91R
KENANSVILLE    MOSUNNY   82  60  46 N7        29.93S
NEW BERN       CLOUDY    84  66  54 E7        29.92R
ELIZABETH CITY SUNNY     78  65  63 NE9       29.93R

.........CENTRAL NC.........

CITY           SKY/WX    TMP DP  RH WIND       PRES   REMARKS
RALEIGH DURHAM MOSUNNY   81  57  43 CALM      29.94S
ROCKY MOUNT    MOSUNNY   81  56  42 VRB5      29.94S
ROANOKE RAPIDS NOT AVBL
FAYETTEVILLE   CLOUDY    82  60  47 NE6       29.91R
HOFFMAN        MOSUNNY   82  56  40 W7        29.93S

.........WESTERN NC.........

CITY           SKY/WX    TMP DP  RH WIND       PRES   REMARKS
CHARLOTTE      MOSUNNY   82  54  37 N3        29.95F
GREENSBORO     PTSUNNY   78  54  43 W6        29.95R
HICKORY        NOT AVBL
BOONE          NOT AVBL
ASHEVILLE      NOT AVBL

.....................REST OF SOUTH CAROLINA.....................

.........EASTERN SC.........

CITY           SKY/WX    TMP DP  RH WIND       PRES   REMARKS
CHARLESTON     MOSUNNY   90  62  39 VRB5      29.89S HX  90
BEAUFORT MCAS  MOSUNNY   90  65  43 NE5       29.89F HX  92
HILTON HEAD    NOT AVBL

.........CENTRAL SC.........

CITY           SKY/WX    TMP DP  RH WIND       PRES   REMARKS
COLUMBIA       MOSUNNY   90  54  29 VRB5      29.91S
ORANGEBURG     MOSUNNY   87  59  38 NW7       29.91S
SUMTER SHAW    PTSUNNY   86  61  42 W7        29.90S

.........WESTERN SC.........

CITY           SKY/WX    TMP DP  RH WIND       PRES   REMARKS
GREENVILLE     NOT AVBL
ROCK HILL      SUNNY     82  57  42 VRB5      29.95F
ANDERSON       SUNNY     85  51  31 W13       29.95S
CLEMSON        NOT AVBL
GREENWOOD      MOSUNNY   86  54  33 VRB7      29.95S


...................COASTAL AND OFFSHORE REPORTS..................

................LOCAL PIERS AND NC RESERVE................


STATION/POSITION TIME  SKY/WX   TEMP    WIND        PRES    VSBY
                                AIR SEA DIR/SP/G
                 (UTC)          (F)     (DEG/KT/KT) (MB)    (MI)
JOHNY MRCER PIER 2100            80 84  110/ 10/ 12 1011.9R
NC RESRV MASNBRO NOT AVBL
OCEAN CREST PIER 2100            82 86  170/  8/ 10 1011.6R
SPRINGMAID  PIER 2100            84 85  170/  4/  5 1012.4S


................COASTAL AND OFFSHORE BUOYS................


STATION/POSITION TIME  SKY/WX   TEMP    WIND        PRES    VSBY
                                AIR SEA DIR/SP/G
                 (UTC)          (F)     (DEG/KT/KT) (MB)    (MI)
DIMNDSHOAL 41025 2100                   VRB 14/ 16  1012.6R
WVE H/P(F/S)=  4/ 7 WND WVE H/P(F/S)=  3/ 4 SWL H/P/D(F/S/D)=  2/160/ 7

CAPE LOOKOUT     2000            78      60/ 12/ 13 1012.2F
ONSLOW BAY 41036 2100            79 81   60/ 10/ 10 1012.9S
WVE H/P(F/S)=  4/ 7 WND WVE H/P(F/S)=  2/ 4 SWL H/P/D(F/S/D)=  3/190/ 7

5 WRITEBCH 41038 2000            76 82  100/ 10/ 12   N/A
MASONBORO  41110 2100               82                N/A
WVE H/P(F/S)=  3/ 7 WND WVE H/P(F/S)=  3/ 7

WILM HARBR 41108 NOT AVBL
27WRITEBCH 41037 2000            76 82   70/ 10/ 12 1012.6R
FRYING PAN 41013 NOT AVBL
SUNST NRSH 41024 2000            86     210/  6/  6 1012.1
CAPRS NRSH 41029 2000            84     120/  6/  8   N/A
EDISTO     41004 2100            81 84   30/  8/ 10 1011.8R
WVE H/P(F/S)=  3/ 5 WND WVE H/P(F/S)=  2/ 4 SWL H/P/D(F/S/D)=  3/ 5



..........OFFSHORE BUOYS BEYOND 100 NM OFFSHORE...........
.....IN A TRIANGLE---HAT TO BERMUDA TO BAHAMAS TO HAT.....


STATION/POSITION TIME  SKY/WX   TEMP    WIND        PRES    VSBY
                                AIR SEA DIR/SP/G
                 (UTC)          (F)     (DEG/KT/KT) (MB)    (MI)
150E HAT   41001 NOT AVBL
W BERMUDA  41048 2006            82 82  190/ 16/ 19 1017.1
WVE H/P(F/S)=  7/ 7 WND WVE H/P(F/S)=  7/ 7 SWL H/P/D(F/S/D)=  2/100/15

ATLANTIC S 41049 2016            82 84   90/  8/ 10 1020.8
WVE H/P(F/S)=  3/ 8 WND WVE H/P(F/S)=  2/ 4 SWL H/P/D(F/S/D)=  3/130/ 8

E BAHAMAS  41046 2010            82 85  130/  8/ 10 1017.5
WVE H/P(F/S)=  3/ 8 WND WVE H/P(F/S)=  2/ 3 SWL H/P/D(F/S/D)=  3/110/ 8

NE BAHAMAS 41047 2005            80 85  150/ 14/ 14 1017.9F
WVE H/P(F/S)=  4/ 9 WND WVE H/P(F/S)=  3/ 6 SWL H/P/D(F/S/D)=  2/140/ 9

120E CANVRL41010 2100            85 84  240/ 14/ 16 1013.4S
WVE H/P(F/S)=  4/ 6 WND WVE H/P(F/S)=  3/ 6 SWL H/P/D(F/S/D)=  2/100/ 8


END


USA.gov is the U.S. government's official web portal to all federal, state and local government web resources and services.